SCP
0 0 0 0 0 0 0 0 0 0 0 0 0 0 0 0 0 0 0 0 0 0 0 0 0 0 0 0 0 0 0 0 0 0 0 0 0 0
0 0 0 0 0 0 0 0 0 0 0 0 0 0 0 0 0 0 0 0 0 0 0 0 0 0 0 0 0 0 0 0 0 0 0 0 0 0
0 0 0 0 0 0 0 0 0 0 0 0 0 0 0 0 0 0 0 0 0 0 0 0 0 0 0 0 0 0 0 0 0 0 0 0 0 0
0 0 0 0 0 0 0 0 0 0 0 0 0 0 0 0 0 0 0 0 0 0 0 0 0 0 0 0 0 0 0 0 0 0 0 0 0 0
0 0 0 0 0 0 0 0 0 0 0 0 0 0 0 0 0 0 0 0 0 0 0 0 0 0 0 0 0 0 0 0 0 0 0 0 0 0
0 0 0 0 0 0 0 0 0 0 0 0 0 0 0 0 0 0 0 0 0 0 0 0 0 0 0 0 0 0 0 0 0 0 0 0 0 0
0 0 0 0 0 0 0 0 0 0 0 0 0 0 0 0 0 0 0 0 0 0 0 0 0 0 0 0 0 0 0 0 0 0 0 0 0 0
0 0 0 0 0 0 0 0 0 0 0 0 0 0 0 0 0 0 0 0 0 0 0 0 0 0 0 0 0 0 0 0 0 0 0 0 0 0
0 0 0 0 0 0 0 0 0 0 0 0 0 0 0 0 0 0 0 0 0 0 0 0 0 0 0 0 0 0 0 0 0 0 0 0 0 0
0 0 0 0 0 0 0 0 0 0 0 0 0 0 0 0 0 0 0 0 0 0 0 0 0 0 0 0 0 0 0 0 0 0 0 0 0 0
0 0 0 0 0 0 0 0 0 0 0 0 0 0 0 0 0 0 0 0 0 0 0 0 0 0 0 0 0 0 0 0 0 0 0 0 0 0
0 0 0 0 0 0 0 0 0 0 0 0 0 0 0 0 0 0 0 0 0 0 0 0 0 0 0 0 0 0 0 0 0 0 0 0 0 0
0 0 0 0 0 0 0 0 0 0 0 0 0 0 0 0 0 0 0 0 0 0 0 0 0 0 0 0 0 0 0 0 0 0 0 0 0 0
0 0 0 0 0 0 0 0 0 0 0 0 0 0 0 0 0 0 0 0 0 0 0 0 0 0 0 0 0 0 0 0 0 0 0 0 0 0
0 0 0 0 0 0 0 0 0 0 0 0 0 0 0 0 0 0 0 0 0 0 0 0 0 0 0 0 0 0 0 0 0 0 0 0 0 0
0 0 0 0 0 0 0 0 0 0 0 0 0 0 0 0 0 0 0 0 0 0 0 0 0 0 0 0 0 0 0 0 0 0 0 0 0 0
0 0 0 0 0 0 0 0 0 0 0 0 0 0 0 0 0 0 0 0 0 0 0 0 0 0 0 0 0 0 0 0 0 0 0 0 0 0
0 0 0 0 0 0 0 0 0 0 0 0 0 0 0 0 0 0 0 0 0 0 0 0 0 0 0 0 0 0 0 0 0 0 0 0 0 0
0 0 0 0 0 0 0 0 0 0 0 0 0 0 0 0 0 0 0 0 0 0 0 0 0 0 0 0 0 0 0 0 0 0 0 0 0 0
0 0 0 0 0 0 0 0 0 0 0 0 0 0 0 0 0 0 0 0 0 0 0 0 0 0 0 0 0 0 0 0 0 0 0 0 0 0
0 0 0 0 0 0 0 0 0 0 0 0 0 0 0 0 0 0 0 0 0 0 0 0 0 0 0 0 0 0 0 0 0 0 0 0 0 0
0 0 0 0 0 0 0 0 0 0 0 0 0 0 0 0 0 0 0 0 0 0 0 0 0 0 0 0 0 0 0 0 0 0 0 0 0 0
0 0 0 0 0 0 0 0 0 0 0 0 0 0 0 0 0 0 0 0 0 0 0 0 0 0 0 0 0 0 0 0 0 0 0 0 0 0
Wind_Speed
11 11 8 6 6 6 5 5 5 5 5 4 3 3 2 2 2 3 4 5 7 8 9 10 11 12 13 13 14 15 16 16 16 17 18 19 20 20
8 10 10 7 6 6 5 5 5 6 5 3 2 2 2 2 3 4 4 5 6 8 9 10 11 12 12 13 14 14 15 15 16 17 18 19 20 20
11 11 11 9 7 6 5 5 5 5 7 4 3 2 3 3 3 4 4 4 4 6 8 9 10 11 11 12 13 13 13 14 15 17 18 19 20 20
13 12 12 9 10 7 6 7 6 6 6 6 4 3 4 3 4 4 3 4 5 5 8 9 10 10 10 11 11 12 13 14 15 16 17 18 19 20
13 13 12 12 11 8 8 7 5 5 5 4 4 2 2 2 3 4 4 4 4 5 6 8 9 9 10 10 11 11 12 14 15 16 16 17 18 19
12 12 12 12 11 10 8 8 6 5 5 4 4 3 2 2 3 3 4 4 4 4 5 6 7 8 8 9 9 10 12 13 14 15 16 17 17 19
11 11 10 11 10 9 7 7 7 6 4 4 3 3 3 2 2 2 4 4 4 3 5 4 4 4 5 5 7 10 11 13 14 15 16 17 17 18
11 10 10 10 10 11 10 9 9 7 7 5 4 4 4 3 2 2 3 4 3 2 4 5 4 5 4 4 7 10 11 13 14 15 16 17 18 18
12 10 8 8 11 9 10 9 8 7 6 6 5 5 4 3 3 3 3 4 4 4 4 5 4 5 5 5 7 9 11 13 14 15 16 17 17 18
11 11 11 10 10 10 9 8 7 6 6 5 4 3 2 2 3 2 2 3 4 2 2 4 5 6 6 5 5 8 11 12 14 15 15 16 17 18
9 10 10 10 13 14 10 8 7 4 3 4 3 3 3 3 2 1 1 1 2 2 1 3 4 6 6 5 4 8 10 12 13 14 14 15 16 16
8 8 11 12 15 16 11 9 8 6 6 5 5 4 3 3 3 2 2 2 2 2 0 2 3 4 5 4 5 6 7 10 13 13 13 14 15 10
8 8 8 14 15 16 12 8 9 8 6 5 4 3 3 2 2 1 1 2 2 3 1 2 3 3 4 5 6 6 6 7 8 8 10 13 15 12
9 8 8 16 16 15 10 9 12 9 5 4 4 3 3 2 2 1 1 1 2 3 3 3 3 3 4 6 6 6 7 7 7 7 7 11 12 13
7 10 13 16 14 11 11 13 11 6 5 4 4 3 3 2 2 1 1 1 2 2 3 3 4 4 5 6 6 7 7 7 6 7 8 8 8 8
8 11 15 14 10 9 10 8 5 5 5 4 4 3 2 2 2 1 1 1 1 2 2 3 4 5 6 7 7 7 7 6 7 8 8 8 8 7
10 8 7 7 7 6 6 5 5 5 4 4 4 3 3 2 2 1 1 1 2 2 2 2 3 4 6 6 6 6 6 7 7 7 8 9 8 7
12 9 8 8 8 8 7 6 5 5 5 5 4 4 3 3 2 2 1 2 2 2 2 2 3 4 3 4 5 6 6 6 7 7 7 8 9 8
9 8 8 8 8 7 7 6 6 5 5 5 4 4 3 3 2 2 2 2 2 2 2 2 2 3 4 5 3 4 6 7 7 7 7 7 9 9
7 8 8 8 7 7 7 6 6 6 5 5 4 4 4 3 3 3 2 2 2 2 2 2 2 3 4 5 5 5 7 7 7 8 8 8 8 10
7 7 7 7 7 7 7 6 6 6 6 5 5 4 4 4 3 3 2 2 2 2 2 2 2 4 4 4 4 5 5 6 8 7 8 8 8 6
7 7 7 7 7 7 7 7 6 6 6 5 5 4 4 4 3 3 2 2 2 2 2 2 2 2 2 3 5 6 7 7 8 9 9 8 6 6
7 7 7 7 7 7 7 7 8 6 6 5 5 4 4 4 3 3 2 2 1 1 1 2 2 2 3 3 4 5 7 8 7 7 6 7 10 13
Wind_Direction
208 209 211 210 209 214 219 224 234 253 253 227 216 209 229 253 268 267 279 293 293 296 300 304 307 309 310 311 311 311 313 314 315 315 314 315 316 318
203 206 208 207 204 205 207 214 226 241 256 250 231 223 227 255 275 278 285 303 287 296 301 305 310 311 312 313 312 312 313 315 317 317 317 318 319 320
199 204 207 205 200 198 198 205 214 223 244 252 245 245 249 261 268 277 289 293 292 295 301 305 309 311 312 314 314 315 317 318 319 318 318 318 319 319
201 202 206 201 203 197 197 204 209 215 230 247 243 240 252 267 282 287 296 296 297 302 302 304 308 310 312 314 318 319 319 319 318 318 319 319 319 319
201 202 203 199 201 199 198 201 204 206 219 234 248 251 257 269 285 289 293 294 299 302 295 299 304 308 309 314 319 322 321 319 319 320 320 320 320 319
202 202 202 200 201 197 196 198 195 196 204 219 235 243 252 271 280 291 292 295 299 298 300 305 303 299 302 310 318 321 321 320 321 321 321 321 321 320
198 200 200 197 196 191 187 189 188 191 194 207 221 231 236 247 265 282 288 302 298 298 310 307 306 304 306 306 313 322 321 323 325 324 323 322 321 319
192 194 192 189 188 185 183 182 183 189 193 198 212 223 236 243 257 270 288 302 295 323 313 305 308 305 309 312 326 322 321 325 326 325 324 322 321 320
189 186 184 185 185 186 183 179 186 193 198 202 209 220 230 228 230 249 266 285 289 320 314 296 309 306 313 312 315 316 322 325 325 325 324 322 322 321
188 187 184 181 182 179 175 180 190 196 202 208 214 219 214 205 212 238 260 279 288 287 305 287 307 310 312 302 302 315 320 322 324 325 325 325 326 324
185 185 183 181 174 170 171 174 177 176 163 163 154 138 130 148 167 179 216 272 278 274 291 290 302 312 304 296 309 314 314 317 322 323 324 326 327 326
177 180 183 181 172 171 177 176 179 177 160 151 152 153 156 156 178 200 210 244 275 275 314 299 301 321 306 299 313 314 312 315 319 319 321 324 327 324
176 178 180 176 173 175 179 181 176 165 162 160 162 165 167 175 185 197 217 238 250 255 270 297 293 299 289 299 303 307 314 318 317 316 317 322 323 321
177 176 172 169 171 172 175 165 156 154 151 154 163 171 180 189 191 194 203 251 265 264 266 265 266 281 289 294 293 306 315 316 316 316 317 320 317 316
169 164 159 159 160 166 165 159 158 159 158 165 176 183 182 179 166 166 175 220 267 264 257 258 265 275 275 276 288 299 309 311 313 316 317 317 315 315
151 146 147 147 148 149 154 161 165 164 166 172 171 164 155 161 172 179 217 246 266 261 251 267 274 274 273 277 283 291 300 304 312 315 315 311 310 308
147 141 146 152 158 159 157 157 157 156 160 159 159 160 163 169 178 184 213 238 255 282 296 295 289 282 271 272 281 287 299 305 309 315 315 311 311 311
147 156 163 168 169 168 167 166 165 167 165 164 165 167 172 178 181 187 209 236 262 279 296 311 321 314 291 254 243 281 297 307 312 313 310 309 312 316
158 166 169 171 170 168 169 170 171 168 165 165 167 168 170 174 182 194 211 236 260 277 291 301 310 313 312 313 294 255 297 309 312 311 311 309 308 311
172 170 170 169 168 166 167 169 164 161 165 167 165 166 170 175 185 199 210 232 255 273 283 290 296 301 295 302 303 296 294 301 308 311 313 310 302 298
173 171 166 164 164 164 164 165 164 165 167 167 166 169 173 177 187 199 210 216 242 262 279 292 306 308 293 283 286 295 305 304 301 298 307 311 313 313
169 167 164 163 162 163 161 160 160 162 165 169 168 170 174 179 185 194 204 213 232 261 282 297 306 298 291 290 304 310 314 318 309 297 284 280 302 315
166 162 160 161 161 160 160 161 162 165 169 170 168 169 170 173 178 187 194 204 216 246 281 302 307 303 301 299 306 310 315 319 320 322 315 308 299 291